| time (UTC) | temp F | wind direction | speed MPH | gust MPH | rain 1hr in | rain 24hr in | rain mn in | humidity % | barometer mb |
| 20260506131626 | 66 | 143 | 4.0 | 6.0 | 0.00 | 0.00 | 0.00 | 75 | 1010.3 |
| 20260506131122 | 65 | 224 | 2.0 | 2.0 | 0.00 | 0.00 | 0.00 | 77 | 1010.6 |
| 20260506130619 | 65 | 133 | 2.0 | 3.0 | 0.00 | 0.00 | 0.00 | 77 | 1010.7 |
| 20260506130116 | 65 | 144 | 0.0 | 1.0 | 0.00 | 0.00 | 0.00 | 78 | 1010.5 |
| 20260506125614 | 65 | 163 | 2.0 | 2.0 | 0.00 | 0.00 | 0.00 | 78 | 1010.5 |
| 20260506125112 | 65 | 142 | 1.0 | 1.0 | 0.00 | 0.00 | 0.00 | 78 | 1010.3 |
| 20260506124609 | 65 | 167 | 2.0 | 3.0 | 0.00 | 0.00 | 0.00 | 77 | 1010.0 |
| 20260506124107 | 65 | 168 | 0.0 | 0.0 | 0.00 | 0.00 | 0.00 | 78 | 1010.2 |
| 20260506123604 | 64 | 121 | 1.0 | 1.0 | 0.00 | 0.00 | 0.00 | 79 | 1010.1 |
| 20260506123103 | 64 | 132 | 1.0 | 1.0 | 0.00 | 0.00 | 0.00 | 79 | 1010.0 |
| 20260506122559 | 64 | 154 | 1.0 | 1.0 | 0.00 | 0.00 | 0.00 | 79 | 1010.1 |
| 20260506122057 | 64 | 232 | 0.0 | 1.0 | 0.00 | 0.00 | 0.00 | 79 | 1010.4 |
| 20260506121554 | 64 | 148 | 0.0 | 0.0 | 0.00 | 0.00 | 0.00 | 79 | 1010.5 |
| 20260506121050 | 64 | 143 | 0.0 | 0.0 | 0.00 | 0.00 | 0.00 | 80 | 1010.5 |
| 20260506120549 | 64 | 137 | 0.0 | 0.0 | 0.00 | 0.00 | 0.00 | 80 | 1010.5 |
| 20260506120046 | 64 | 143 | 1.0 | 1.0 | 0.00 | 0.00 | 0.00 | 80 | 1010.8 |
| 20260506115544 | 64 | 180 | 1.0 | 2.0 | 0.00 | 0.00 | 0.00 | 80 | 1010.4 |
| 20260506115042 | 64 | 144 | 1.0 | 1.0 | 0.00 | 0.00 | 0.00 | 80 | 1010.8 |
| 20260506114539 | 64 | 177 | 1.0 | 2.0 | 0.00 | 0.00 | 0.00 | 80 | 1010.8 |
| 20260506114037 | 64 | 275 | 3.0 | 3.0 | 0.00 | 0.00 | 0.00 | 79 | 1010.6 |
| 20260506113535 | 64 | 154 | 0.0 | 1.0 | 0.00 | 0.00 | 0.00 | 80 | 1011.1 |
| 20260506113032 | 64 | 269 | 1.0 | 2.0 | 0.00 | 0.00 | 0.00 | 80 | 1010.6 |
| 20260506112528 | 64 | 136 | 1.0 | 1.0 | 0.00 | 0.00 | 0.00 | 80 | 1010.6 |
| 20260506112026 | 64 | 120 | 1.0 | 2.0 | 0.00 | 0.00 | 0.00 | 80 | 1010.7 |
| 20260506111524 | 64 | 164 | 1.0 | 1.0 | 0.00 | 0.00 | 0.00 | 80 | 1010.5 |
| 20260506111021 | 64 | 40 | 0.0 | 0.0 | 0.00 | 0.00 | 0.00 | 80 | 1010.6 |
| 20260506110518 | 64 | 233 | 3.0 | 3.0 | 0.00 | 0.00 | 0.00 | 80 | 1010.6 |
| 20260506110015 | 64 | 221 | 1.0 | 1.0 | 0.00 | 0.00 | 0.00 | 80 | 1010.4 |
| 20260506105511 | 63 | 239 | 1.0 | 2.0 | 0.00 | 0.00 | 0.00 | 80 | 1010.8 |
| 20260506105009 | 63 | 199 | 1.0 | 1.0 | 0.00 | 0.00 | 0.00 | 82 | 1010.7 |
| 20260506104507 | 63 | 208 | 1.0 | 1.0 | 0.00 | 0.00 | 0.00 | 82 | 1010.3 |
| 20260506104005 | 62 | 180 | 2.0 | 2.0 | 0.00 | 0.00 | 0.00 | 82 | 1010.4 |
| 20260506103501 | 62 | 221 | 2.0 | 3.0 | 0.00 | 0.00 | 0.00 | 83 | 1010.6 |
| 20260506102958 | 62 | 138 | 0.0 | 1.0 | 0.00 | 0.00 | 0.00 | 83 | 1010.7 |
| 20260506102456 | 62 | 180 | 1.0 | 1.0 | 0.00 | 0.00 | 0.00 | 83 | 1010.6 |
| 20260506101953 | 62 | 166 | 0.0 | 1.0 | 0.00 | 0.00 | 0.00 | 83 | 1010.3 |
| 20260506101450 | 62 | 133 | 0.0 | 1.0 | 0.00 | 0.00 | 0.00 | 83 | 1010.3 |
| 20260506100947 | 62 | 250 | 0.0 | 1.0 | 0.00 | 0.00 | 0.00 | 83 | 1010.4 |
| 20260506100446 | 62 | 153 | 0.0 | 1.0 | 0.00 | 0.00 | 0.00 | 83 | 1010.5 |
| 20260506095943 | 62 | 145 | 0.0 | 0.0 | 0.00 | 0.00 | 0.00 | 83 | 1010.2 |
| 20260506095442 | 62 | 153 | 1.0 | 1.0 | 0.00 | 0.00 | 0.00 | 83 | 1010.3 |
| 20260506094937 | 62 | 152 | 1.0 | 1.0 | 0.00 | 0.00 | 0.00 | 83 | 1010.0 |
| 20260506094436 | 62 | 143 | 0.0 | 0.0 | 0.00 | 0.00 | 0.00 | 83 | 1010.3 |
| 20260506093933 | 62 | 155 | 1.0 | 1.0 | 0.00 | 0.00 | 0.00 | 83 | 1010.1 |
| 20260506093431 | 62 | 131 | 1.0 | 1.0 | 0.00 | 0.00 | 0.00 | 82 | 1010.3 |
| 20260506092928 | 62 | 186 | 1.0 | 2.0 | 0.00 | 0.00 | 0.00 | 83 | 1010.2 |
| 20260506092426 | 62 | 195 | 2.0 | 2.0 | 0.00 | 0.00 | 0.00 | 83 | 1010.3 |
| 20260506091922 | 62 | 217 | 2.0 | 2.0 | 0.00 | 0.00 | 0.00 | 83 | 1010.2 |
| 20260506091421 | 62 | 225 | 1.0 | 2.0 | 0.00 | 0.00 | 0.00 | 83 | 1010.4 |
| 20260506090918 | 62 | 152 | 0.0 | 1.0 | 0.00 | 0.00 | 0.00 | 83 | 1010.4 |
| 20260506090415 | 62 | 141 | 1.0 | 2.0 | 0.00 | 0.00 | 0.00 | 83 | 1010.4 |
| 20260506085912 | 62 | 136 | 0.0 | 0.0 | 0.00 | 0.00 | 0.00 | 83 | 1010.6 |
| 20260506085409 | 62 | 135 | 0.0 | 0.0 | 0.00 | 0.00 | 0.00 | 82 | 1010.6 |
| 20260506084905 | 62 | 156 | 1.0 | 1.0 | 0.00 | 0.00 | 0.00 | 83 | 1010.6 |
| 20260506084402 | 62 | 144 | 0.0 | 1.0 | 0.00 | 0.00 | 0.00 | 82 | 1010.5 |
| 20260506083858 | 62 | 137 | 0.0 | 0.0 | 0.00 | 0.00 | 0.00 | 82 | 1010.7 |
| 20260506083356 | 62 | 169 | 0.0 | 1.0 | 0.00 | 0.00 | 0.00 | 82 | 1010.7 |
| 20260506082853 | 62 | 123 | 0.0 | 0.0 | 0.00 | 0.00 | 0.00 | 82 | 1010.5 |
| 20260506082349 | 62 | 137 | 0.0 | 0.0 | 0.00 | 0.00 | 0.00 | 81 | 1010.7 |
| 20260506081845 | 62 | 125 | 0.0 | 0.0 | 0.00 | 0.00 | 0.00 | 81 | 1010.6 |
| 20260506081344 | 63 | 139 | 0.0 | 0.0 | 0.00 | 0.00 | 0.00 | 81 | 1010.5 |
| 20260506080841 | 63 | 164 | 1.0 | 1.0 | 0.00 | 0.00 | 0.00 | 80 | 1010.7 |
| 20260506080338 | 62 | 128 | 0.0 | 0.0 | 0.00 | 0.00 | 0.00 | 80 | 1010.6 |
| 20260506073322 | 63 | 134 | 0.0 | 0.0 | 0.00 | 0.00 | 0.00 | 77 | 1010.6 |
| 20260506072818 | 63 | 142 | 0.0 | 1.0 | 0.00 | 0.00 | 0.00 | 77 | 1010.6 |
| 20260506072316 | 64 | 128 | 0.0 | 0.0 | 0.00 | 0.00 | 0.00 | 76 | 1010.7 |
| 20260506071813 | 64 | 132 | 0.0 | 0.0 | 0.00 | 0.00 | 0.00 | 75 | 1010.7 |
| 20260506071312 | 64 | 136 | 0.0 | 0.0 | 0.00 | 0.00 | 0.00 | 74 | 1010.4 |
| 20260506070808 | 64 | 159 | 1.0 | 1.0 | 0.00 | 0.00 | 0.00 | 74 | 1010.5 |
| 20260506070305 | 64 | 161 | 1.0 | 1.0 | 0.00 | 0.00 | 0.00 | 74 | 1010.8 |
| 20260506062242 | 65 | 144 | 0.0 | 0.0 | 0.00 | 0.00 | 0.00 | 71 | 1010.9 |
| 20260506061738 | 65 | 138 | 0.0 | 0.0 | 0.00 | 0.00 | 0.00 | 71 | 1010.8 |
| 20260506061236 | 65 | 155 | 0.0 | 0.0 | 0.00 | 0.00 | 0.00 | 71 | 1010.7 |
| 20260506060734 | 65 | 130 | 0.0 | 0.0 | 0.00 | 0.00 | 0.00 | 71 | 1011.0 |
| 20260506060231 | 65 | 221 | 1.0 | 2.0 | 0.00 | 0.00 | 0.00 | 71 | 1010.7 |
| 20260506051203 | 66 | 199 | 1.0 | 2.0 | 0.00 | 0.00 | 0.00 | 67 | 1011.3 |
| 20260506050701 | 66 | 167 | 1.0 | 1.0 | 0.00 | 0.00 | 0.00 | 68 | 1011.3 |
| 20260506050158 | 66 | 154 | 0.0 | 0.0 | 0.00 | 0.00 | 0.00 | 68 | 1011.2 |
| 20260506044649 | 67 | 169 | 1.0 | 1.0 | 0.00 | 0.00 | 0.00 | 66 | 1011.2 |
| 20260506044145 | 67 | 146 | 1.0 | 1.0 | 0.00 | 0.00 | 0.00 | 66 | 1011.5 |
| 20260506043643 | 67 | 198 | 1.0 | 1.0 | 0.00 | 0.00 | 0.00 | 66 | 1011.6 |
| 20260506043141 | 67 | 140 | 2.0 | 2.0 | 0.00 | 0.00 | 0.00 | 65 | 1011.3 |
| 20260506042640 | 67 | 213 | 1.0 | 1.0 | 0.00 | 0.00 | 0.00 | 65 | 1011.4 |
| 20260506042137 | 67 | 241 | 2.0 | 2.0 | 0.00 | 0.00 | 0.00 | 65 | 1011.4 |
| 20260506041636 | 67 | 120 | 2.0 | 2.0 | 0.00 | 0.00 | 0.00 | 65 | 1011.5 |
| 20260506041132 | 67 | 135 | 1.0 | 1.0 | 0.00 | 0.00 | 0.00 | 65 | 1011.4 |
| 20260506040630 | 67 | 133 | 0.0 | 0.0 | 0.00 | 0.00 | 0.00 | 65 | 1011.5 |
| 20260506040126 | 67 | 144 | 0.0 | 1.0 | 0.00 | 0.00 | 0.00 | 64 | 1011.2 |
| 20260506035623 | 68 | 147 | 0.0 | 0.0 | 0.00 | 0.00 | 0.00 | 64 | 1011.2 |
| 20260506035120 | 68 | 141 | 2.0 | 2.0 | 0.00 | 0.00 | 0.00 | 64 | 1011.1 |
| 20260506034617 | 68 | 149 | 1.0 | 1.0 | 0.00 | 0.00 | 0.00 | 63 | 1011.2 |
| 20260506034114 | 68 | 82 | 1.0 | 2.0 | 0.00 | 0.00 | 0.00 | 63 | 1011.5 |
| 20260506033611 | 68 | 174 | 1.0 | 1.0 | 0.00 | 0.00 | 0.00 | 63 | 1011.4 |
| 20260506033108 | 68 | 212 | 1.0 | 2.0 | 0.00 | 0.00 | 0.00 | 63 | 1011.6 |
| 20260506032606 | 68 | 225 | 2.0 | 2.0 | 0.00 | 0.00 | 0.00 | 62 | 1011.4 |
| 20260506032102 | 68 | 243 | 3.0 | 3.0 | 0.00 | 0.00 | 0.00 | 62 | 1011.1 |
| 20260506031600 | 69 | 200 | 2.0 | 2.0 | 0.00 | 0.00 | 0.00 | 62 | 1011.3 |
| 20260506031056 | 69 | 240 | 2.0 | 2.0 | 0.00 | 0.00 | 0.00 | 61 | 1011.3 |
| 20260506030555 | 69 | 181 | 2.0 | 2.0 | 0.00 | 0.00 | 0.00 | 61 | 1011.3 |
| 20260506030052 | 69 | 264 | 3.0 | 5.0 | 0.00 | 0.00 | 0.00 | 60 | 1011.0 |
| 20260506025549 | 69 | 148 | 1.0 | 2.0 | 0.00 | 0.00 | 0.00 | 60 | 1011.3 |
| 20260506025044 | 69 | 171 | 2.0 | 3.0 | 0.00 | 0.00 | 0.00 | 60 | 1011.2 |
| 20260506024542 | 69 | 176 | 1.0 | 1.0 | 0.00 | 0.00 | 0.00 | 59 | 1011.1 |
| 20260506024038 | 70 | 152 | 0.0 | 1.0 | 0.00 | 0.00 | 0.00 | 59 | 1011.2 |
| 20260506023534 | 70 | 170 | 2.0 | 2.0 | 0.00 | 0.00 | 0.00 | 57 | 1011.2 |
| 20260506023032 | 70 | 257 | 2.0 | 3.0 | 0.00 | 0.00 | 0.00 | 56 | 1011.2 |
| 20260506022529 | 70 | 161 | 1.0 | 2.0 | 0.00 | 0.00 | 0.00 | 56 | 1011.0 |
| 20260506022027 | 70 | 127 | 1.0 | 2.0 | 0.00 | 0.00 | 0.00 | 55 | 1011.2 |
| 20260506021524 | 71 | 232 | 2.0 | 2.0 | 0.00 | 0.00 | 0.00 | 54 | 1011.2 |
| 20260506021021 | 71 | 268 | 1.0 | 2.0 | 0.00 | 0.00 | 0.00 | 53 | 1011.1 |
| 20260506020519 | 71 | 170 | 1.0 | 1.0 | 0.00 | 0.00 | 0.00 | 52 | 1011.1 |
| 20260506020016 | 71 | 169 | 1.0 | 1.0 | 0.00 | 0.00 | 0.00 | 51 | 1011.1 |
| 20260506015513 | 72 | 131 | 1.0 | 1.0 | 0.00 | 0.00 | 0.00 | 50 | 1010.9 |
| 20260506015010 | 72 | 242 | 3.0 | 3.0 | 0.00 | 0.00 | 0.00 | 50 | 1010.8 |
| 20260506014508 | 72 | 178 | 1.0 | 2.0 | 0.00 | 0.00 | 0.00 | 49 | 1010.9 |
| 20260506014003 | 72 | 256 | 3.0 | 5.0 | 0.00 | 0.00 | 0.00 | 49 | 1011.0 |
| 20260506013501 | 72 | 128 | 0.0 | 1.0 | 0.00 | 0.00 | 0.00 | 49 | 1010.9 |
| 20260506012957 | 72 | 160 | 1.0 | 1.0 | 0.00 | 0.00 | 0.00 | 48 | 1010.8 |
| 20260506012454 | 73 | 145 | 0.0 | 0.0 | 0.00 | 0.00 | 0.00 | 48 | 1010.9 |
| 20260506011951 | 73 | 160 | 1.0 | 1.0 | 0.00 | 0.00 | 0.00 | 47 | 1010.6 |
| 20260506011448 | 73 | 226 | 2.0 | 2.0 | 0.00 | 0.00 | 0.00 | 47 | 1010.6 |
| 20260506010945 | 73 | 112 | 1.0 | 1.0 | 0.00 | 0.00 | 0.00 | 47 | 1010.6 |
| 20260506010444 | 73 | 140 | 1.0 | 1.0 | 0.00 | 0.00 | 0.00 | 47 | 1010.5 |
| 20260506005939 | 73 | 215 | 2.0 | 3.0 | 0.00 | 0.00 | 0.00 | 47 | 1010.4 |
| 20260506005438 | 73 | 160 | 1.0 | 1.0 | 0.00 | 0.00 | 0.00 | 46 | 1010.5 |
| 20260506004932 | 74 | 151 | 2.0 | 3.0 | 0.00 | 0.00 | 0.00 | 45 | 1010.4 |
| 20260506004431 | 74 | 208 | 3.0 | 3.0 | 0.00 | 0.00 | 0.00 | 44 | 1010.4 |
| 20260506003926 | 74 | 208 | 0.0 | 1.0 | 0.00 | 0.00 | 0.00 | 45 | 1010.2 |
| 20260506003423 | 74 | 230 | 1.0 | 2.0 | 0.00 | 0.00 | 0.00 | 44 | 1010.2 |
| 20260506002920 | 74 | 133 | 1.0 | 1.0 | 0.00 | 0.00 | 0.00 | 43 | 1010.2 |
| 20260506002416 | 74 | 148 | 0.0 | 1.0 | 0.00 | 0.00 | 0.00 | 43 | 1010.1 |
| 20260506001911 | 74 | 151 | 1.0 | 1.0 | 0.00 | 0.00 | 0.00 | 42 | 1009.8 |
| 20260506001409 | 75 | 161 | 1.0 | 1.0 | 0.00 | 0.00 | 0.00 | 41 | 1010.0 |
| 20260506000906 | 75 | 160 | 1.0 | 2.0 | 0.00 | 0.00 | 0.00 | 41 | 1010.1 |
| 20260506000403 | 75 | 134 | 0.0 | 1.0 | 0.00 | 0.00 | 0.00 | 40 | 1010.0 |
| 20260505235900 | 75 | 242 | 1.0 | 2.0 | 0.00 | 0.00 | 0.00 | 41 | 1010.0 |
| 20260505235358 | 75 | 146 | 1.0 | 1.0 | 0.00 | 0.00 | 0.00 | 40 | 1010.1 |
| 20260505234854 | 76 | 150 | 1.0 | 1.0 | 0.00 | 0.00 | 0.00 | 40 | 1009.8 |
| 20260505234352 | 76 | 189 | 1.0 | 2.0 | 0.00 | 0.00 | 0.00 | 39 | 1009.7 |
| 20260505233848 | 76 | 139 | 1.0 | 1.0 | 0.00 | 0.00 | 0.00 | 40 | 1009.8 |
| 20260505233347 | 76 | 126 | 1.0 | 1.0 | 0.00 | 0.00 | 0.00 | 39 | 1010.0 |
| 20260505232844 | 76 | 226 | 2.0 | 2.0 | 0.00 | 0.00 | 0.00 | 37 | 1009.5 |
| 20260505232342 | 76 | 121 | 2.0 | 2.0 | 0.00 | 0.00 | 0.00 | 38 | 1009.7 |
| 20260505231838 | 76 | 139 | 2.0 | 2.0 | 0.00 | 0.00 | 0.00 | 38 | 1009.6 |
| 20260505231336 | 76 | 124 | 1.0 | 1.0 | 0.00 | 0.00 | 0.00 | 38 | 1009.5 |
| 20260505230834 | 76 | 196 | 2.0 | 2.0 | 0.00 | 0.00 | 0.00 | 37 | 1009.4 |
| 20260505230331 | 76 | 194 | 1.0 | 1.0 | 0.00 | 0.00 | 0.00 | 37 | 1009.6 |
| 20260505225827 | 77 | 201 | 1.0 | 2.0 | 0.00 | 0.00 | 0.00 | 37 | 1009.6 |
| 20260505225324 | 77 | 248 | 2.0 | 2.0 | 0.00 | 0.00 | 0.00 | 36 | 1009.1 |
| 20260505224819 | 77 | 206 | 2.0 | 3.0 | 0.00 | 0.00 | 0.00 | 36 | 1009.1 |
| 20260505224318 | 78 | 191 | 1.0 | 1.0 | 0.00 | 0.00 | 0.00 | 35 | 1009.1 |
| 20260505223814 | 78 | 130 | 2.0 | 3.0 | 0.00 | 0.00 | 0.00 | 35 | 1009.1 |
| 20260505223312 | 78 | 209 | 1.0 | 2.0 | 0.00 | 0.00 | 0.00 | 36 | 1009.2 |
| 20260505222807 | 78 | 114 | 2.0 | 2.0 | 0.00 | 0.00 | 0.00 | 36 | 1008.9 |
| 20260505222305 | 78 | 208 | 1.0 | 2.0 | 0.00 | 0.00 | 0.00 | 35 | 1009.1 |
| 20260505221801 | 79 | 223 | 2.0 | 2.0 | 0.00 | 0.00 | 0.00 | 34 | 1009.2 |
| 20260505221257 | 79 | 132 | 1.0 | 1.0 | 0.00 | 0.00 | 0.00 | 34 | 1009.0 |
| 20260505220754 | 79 | 188 | 2.0 | 2.0 | 0.00 | 0.00 | 0.00 | 35 | 1009.1 |
| 20260505220251 | 78 | 234 | 2.0 | 3.0 | 0.00 | 0.00 | 0.00 | 34 | 1009.3 |
| 20260505215750 | 78 | 195 | 2.0 | 2.0 | 0.00 | 0.00 | 0.00 | 34 | 1008.9 |
| 20260505215247 | 78 | 145 | 0.0 | 0.0 | 0.00 | 0.00 | 0.00 | 35 | 1008.9 |
| 20260505214745 | 79 | 141 | 1.0 | 1.0 | 0.00 | 0.00 | 0.00 | 34 | 1008.7 |
| 20260505214242 | 79 | 186 | 2.0 | 2.0 | 0.00 | 0.00 | 0.00 | 34 | 1008.7 |
| 20260505213739 | 79 | 117 | 1.0 | 1.0 | 0.00 | 0.00 | 0.00 | 34 | 1008.9 |
| 20260505213236 | 79 | 165 | 2.0 | 2.0 | 0.00 | 0.00 | 0.00 | 32 | 1008.9 |
| 20260505212732 | 79 | 244 | 2.0 | 2.0 | 0.00 | 0.00 | 0.00 | 33 | 1008.7 |
| 20260505212230 | 79 | 225 | 3.0 | 6.0 | 0.00 | 0.00 | 0.00 | 33 | 1008.6 |
| 20260505211726 | 79 | 181 | 1.0 | 2.0 | 0.00 | 0.00 | 0.00 | 32 | 1008.5 |
| 20260505211224 | 80 | 339 | 4.0 | 6.0 | 0.00 | 0.00 | 0.00 | 31 | 1008.4 |
| 20260505210720 | 79 | 174 | 1.0 | 2.0 | 0.00 | 0.00 | 0.00 | 34 | 1008.4 |
| 20260505210217 | 80 | 156 | 2.0 | 2.0 | 0.00 | 0.00 | 0.00 | 34 | 1008.4 |
| 20260505205714 | 80 | 284 | 5.0 | 7.0 | 0.00 | 0.00 | 0.00 | 33 | 1008.2 |
| 20260505205213 | 80 | 158 | 3.0 | 5.0 | 0.00 | 0.00 | 0.00 | 34 | 1008.5 |
| 20260505204709 | 81 | 327 | 3.0 | 3.0 | 0.00 | 0.00 | 0.00 | 34 | 1008.2 |
| 20260505204207 | 81 | 253 | 6.0 | 7.0 | 0.00 | 0.00 | 0.00 | 32 | 1008.5 |
| 20260505203704 | 81 | 270 | 3.0 | 3.0 | 0.00 | 0.00 | 0.00 | 34 | 1008.7 |
| 20260505203201 | 82 | 198 | 3.0 | 5.0 | 0.00 | 0.00 | 0.00 | 34 | 1008.6 |
| 20260505202656 | 82 | 175 | 4.0 | 5.0 | 0.00 | 0.00 | 0.00 | 33 | 1008.7 |
| 20260505202153 | 82 | 221 | 3.0 | 3.0 | 0.00 | 0.00 | 0.00 | 35 | 1008.9 |
| 20260505201649 | 82 | 235 | 3.0 | 3.0 | 0.00 | 0.00 | 0.00 | 35 | 1008.6 |
| 20260505201147 | 82 | 205 | 1.0 | 2.0 | 0.00 | 0.00 | 0.00 | 35 | 1008.6 |
| 20260505200645 | 82 | 241 | 4.0 | 6.0 | 0.00 | 0.00 | 0.00 | 33 | 1008.7 |
| 20260505200141 | 82 | 213 | 3.0 | 3.0 | 0.00 | 0.00 | 0.00 | 33 | 1008.6 |
| 20260505195637 | 83 | 191 | 2.0 | 2.0 | 0.00 | 0.00 | 0.00 | 35 | 1008.7 |
| 20260505195135 | 82 | 248 | 4.0 | 5.0 | 0.00 | 0.00 | 0.00 | 34 | 1008.6 |
| 20260505194632 | 82 | 249 | 5.0 | 11.0 | 0.00 | 0.00 | 0.00 | 33 | 1008.7 |
| 20260505194128 | 82 | 223 | 1.0 | 2.0 | 0.00 | 0.00 | 0.00 | 34 | 1009.0 |
| 20260505193625 | 82 | 250 | 3.0 | 5.0 | 0.00 | 0.00 | 0.00 | 35 | 1009.0 |
| 20260505193122 | 82 | 222 | 5.0 | 9.0 | 0.00 | 0.00 | 0.00 | 34 | 1009.0 |
| 20260505192621 | 82 | 282 | 4.0 | 6.0 | 0.00 | 0.00 | 0.00 | 34 | 1009.1 |
| 20260505192117 | 82 | 154 | 2.0 | 3.0 | 0.00 | 0.00 | 0.00 | 33 | 1009.0 |
| 20260505191616 | 83 | 266 | 3.0 | 5.0 | 0.00 | 0.00 | 0.00 | 33 | 1009.0 |
| 20260505191113 | 83 | 157 | 3.0 | 3.0 | 0.00 | 0.00 | 0.00 | 34 | 1009.0 |
| 20260505190609 | 83 | 246 | 2.0 | 2.0 | 0.00 | 0.00 | 0.00 | 35 | 1009.2 |
| 20260505190104 | 83 | 102 | 3.0 | 5.0 | 0.00 | 0.00 | 0.00 | 35 | 1009.4 |
| 20260505185601 | 83 | 231 | 1.0 | 2.0 | 0.00 | 0.00 | 0.00 | 36 | 1009.4 |
| 20260505185057 | 84 | 165 | 3.0 | 5.0 | 0.00 | 0.00 | 0.00 | 35 | 1009.1 |
| 20260505184554 | 83 | 223 | 1.0 | 2.0 | 0.00 | 0.00 | 0.00 | 37 | 1009.5 |
| 20260505184051 | 83 | 232 | 2.0 | 3.0 | 0.00 | 0.00 | 0.00 | 37 | 1009.7 |
| 20260505183547 | 83 | 186 | 2.0 | 2.0 | 0.00 | 0.00 | 0.00 | 37 | 1009.7 |
| 20260505183045 | 84 | 222 | 2.0 | 2.0 | 0.00 | 0.00 | 0.00 | 35 | 1009.8 |
| 20260505182541 | 85 | 273 | 2.0 | 3.0 | 0.00 | 0.00 | 0.00 | 34 | 1009.7 |
| 20260505182038 | 83 | 290 | 1.0 | 1.0 | 0.00 | 0.00 | 0.00 | 36 | 1009.7 |
| 20260505181535 | 82 | 136 | 0.0 | 1.0 | 0.00 | 0.00 | 0.00 | 38 | 1009.6 |
| 20260505181032 | 81 | 180 | 1.0 | 1.0 | 0.00 | 0.00 | 0.00 | 39 | 1010.0 |
| 20260505180528 | 82 | 246 | 2.0 | 2.0 | 0.00 | 0.00 | 0.00 | 38 | 1010.2 |
| 20260505180026 | 81 | 148 | 1.0 | 1.0 | 0.00 | 0.00 | 0.00 | 39 | 1010.2 |
| 20260505175520 | 83 | 74 | 2.0 | 2.0 | 0.00 | 0.00 | 0.00 | 37 | 1009.8 |
| 20260505175018 | 83 | 264 | 3.0 | 3.0 | 0.00 | 0.00 | 0.00 | 38 | 1010.2 |
| 20260505174515 | 82 | 164 | 0.0 | 1.0 | 0.00 | 0.00 | 0.00 | 43 | 1010.3 |
| 20260505174011 | 82 | 199 | 1.0 | 1.0 | 0.00 | 0.00 | 0.00 | 42 | 1010.3 |
| 20260505173508 | 81 | 286 | 3.0 | 7.0 | 0.00 | 0.00 | 0.00 | 41 | 1010.3 |
| 20260505173004 | 82 | 181 | 2.0 | 2.0 | 0.00 | 0.00 | 0.00 | 39 | 1010.4 |
| 20260505172502 | 83 | 170 | 1.0 | 1.0 | 0.00 | 0.00 | 0.00 | 41 | 1010.4 |
| 20260505171957 | 81 | 127 | 0.0 | 1.0 | 0.00 | 0.00 | 0.00 | 42 | 1010.5 |
| 20260505171453 | 82 | 197 | 1.0 | 1.0 | 0.00 | 0.00 | 0.00 | 43 | 1010.6 |
| 20260505170950 | 81 | 224 | 2.0 | 3.0 | 0.00 | 0.00 | 0.00 | 42 | 1010.5 |
| 20260505170447 | 81 | 199 | 3.0 | 3.0 | 0.00 | 0.00 | 0.00 | 41 | 1010.7 |
| 20260505165942 | 80 | 15 | 2.0 | 3.0 | 0.00 | 0.00 | 0.00 | 45 | 1010.5 |
| 20260505165438 | 80 | 205 | 5.0 | 6.0 | 0.00 | 0.00 | 0.00 | 43 | 1010.6 |
| 20260505164934 | 79 | 259 | 3.0 | 5.0 | 0.00 | 0.00 | 0.00 | 44 | 1010.8 |
| 20260505164431 | 79 | 313 | 3.0 | 5.0 | 0.00 | 0.00 | 0.00 | 45 | 1010.8 |
| 20260505163929 | 79 | 102 | 2.0 | 2.0 | 0.00 | 0.00 | 0.00 | 46 | 1010.8 |
| 20260505163427 | 80 | 157 | 1.0 | 2.0 | 0.00 | 0.00 | 0.00 | 44 | 1010.9 |
| 20260505162926 | 80 | 242 | 4.0 | 5.0 | 0.00 | 0.00 | 0.00 | 45 | 1010.9 |
| 20260505162421 | 80 | 155 | 1.0 | 1.0 | 0.00 | 0.00 | 0.00 | 45 | 1011.0 |
| 20260505161919 | 80 | 153 | 1.0 | 2.0 | 0.00 | 0.00 | 0.00 | 45 | 1011.0 |
| 20260505161415 | 80 | 158 | 0.0 | 1.0 | 0.00 | 0.00 | 0.00 | 46 | 1011.2 |
| 20260505160913 | 80 | 163 | 1.0 | 1.0 | 0.00 | 0.00 | 0.00 | 45 | 1011.1 |
| 20260505160411 | 80 | 170 | 1.0 | 2.0 | 0.00 | 0.00 | 0.00 | 47 | 1011.3 |
| 20260505153349 | 77 | 257 | 2.0 | 2.0 | 0.00 | 0.00 | 0.00 | 48 | 1011.6 |
| 20260505152846 | 77 | 171 | 1.0 | 1.0 | 0.00 | 0.00 | 0.00 | 48 | 1011.5 |
| 20260505152343 | 77 | 178 | 2.0 | 2.0 | 0.00 | 0.00 | 0.00 | 48 | 1011.8 |
| 20260505151837 | 77 | 129 | 0.0 | 0.0 | 0.00 | 0.00 | 0.00 | 50 | 1011.9 |
| 20260505151335 | 77 | 153 | 1.0 | 2.0 | 0.00 | 0.00 | 0.00 | 49 | 1011.8 |
| 20260505150831 | 77 | 127 | 0.0 | 0.0 | 0.00 | 0.00 | 0.00 | 50 | 1011.8 |
| 20260505150329 | 75 | 124 | 1.0 | 1.0 | 0.00 | 0.00 | 0.00 | 51 | 1011.7 |
| 20260505140253 | 73 | 179 | 1.0 | 1.0 | 0.00 | 0.00 | 0.00 | 54 | 1012.0 |